HB9TJM-8 Weather Reports


time (UTC)temp
C
wind
direction
speed
KPH
gust
KPH
rain 1hr
cm
rain 24hr
cm
rain mn
cm
humidity
%
barometer
mb
20260506195336 6 355 4.8 8.0 0.00 0.86 0.86 88 1012.2
20260506194828 6 283 4.8 6.4 0.00 0.86 0.86 87 1012.1
20260506194321 6 321 4.8 6.4 0.00 0.86 0.86 88 1012.5
20260506193813 6 280 0.0 4.8 0.00 0.86 0.86 87 1012.1
20260506192758 7 355 3.2 3.2 0.00 0.86 0.86 85 1012.0
20260506192250 7 49 3.2 6.4 0.00 0.86 0.86 84 1011.9
20260506191742 7 20 3.2 4.8 0.00 0.86 0.86 85 1012.0
20260506191235 6 5 3.2 4.8 0.00 0.86 0.86 86 1011.7
20260506190727 6 3 3.2 4.8 0.00 0.86 0.86 88 1011.7
20260506190220 6 10 1.6 3.2 0.00 0.86 0.86 89 1011.6
20260506185712 6 23 0.0 4.8 0.00 0.86 0.86 88 1011.6
20260506185205 6 22 3.2 4.8 0.00 0.86 0.86 86 1011.6
20260506184657 6 19 1.6 4.8 0.00 0.86 0.86 86 1011.3
20260506184149 7 63 1.6 3.2 0.00 0.86 0.86 86 1011.4
20260506183642 7 2 1.6 3.2 0.00 0.86 0.86 85 1011.4
20260506183134 7 7 3.2 4.8 0.00 0.86 0.86 85 1011.2
20260506182627 7 344 3.2 4.8 0.00 0.86 0.86 86 1011.1
20260506182120 7 2 3.2 4.8 0.00 0.86 0.86 85 1011.2
20260506181612 7 30 3.2 3.2 0.00 0.86 0.86 81 1011.1
20260506180557 7 75 3.2 4.8 0.00 0.86 0.86 81 1011.2
20260506180050 7 71 3.2 3.2 0.00 0.86 0.86 84 1011.0
20260506175542 7 123 0.0 3.2 0.00 0.86 0.86 84 1011.2
20260506175035 7 62 0.0 3.2 0.00 0.86 0.86 88 1011.1
20260506174527 7 13 0.0 3.2 0.00 0.86 0.86 87 1010.8
20260506174020 7 346 1.6 3.2 0.00 0.86 0.86 83 1011.1
20260506173512 7 114 0.0 3.2 0.00 0.86 0.86 86 1011.3
20260506173004 7 60 3.2 3.2 0.00 0.86 0.86 85 1010.9
20260506172456 7 77 3.2 4.8 0.00 0.86 0.86 86 1010.7
20260506171949 7 10 4.8 4.8 0.00 0.86 0.86 89 1010.8
20260506171441 7 17 1.6 3.2 0.00 0.86 0.86 88 1010.5
20260506170933 7 51 0.0 3.2 0.00 0.86 0.86 89 1010.2
20260506170426 7 223 0.0 3.2 0.00 0.86 0.86 88 1010.6
20260506165918 7 203 0.0 4.8 0.00 0.86 0.86 87 1010.8
20260506165411 7 135 0.0 4.8 0.00 0.86 0.86 87 1011.0
20260506164904 7 89 0.0 4.8 0.00 0.86 0.86 86 1010.8
20260506164356 7 235 3.2 6.4 0.00 0.86 0.86 86 1010.9
20260506163849 7 203 9.7 11.3 0.00 0.86 0.86 85 1010.8
20260506163341 8 222 9.7 16.1 0.00 0.86 0.86 85 1010.5
20260506162833 8 206 4.8 9.7 0.00 0.86 0.86 85 1011.1
20260506161817 8 230 19.3 19.3 0.00 0.86 0.86 84 1010.4
20260506161309 8 210 9.7 14.5 0.00 0.86 0.86 84 1010.9
20260506160802 8 192 6.4 16.1 0.00 0.86 0.86 82 1010.9
20260506160254 8 203 9.7 14.5 0.00 0.86 0.86 83 1010.9
20260506155746 8 232 3.2 14.5 0.00 0.86 0.86 84 1010.5
20260506155239 8 227 3.2 8.0 0.00 0.86 0.86 83 1010.6
20260506154731 8 177 4.8 16.1 0.00 0.86 0.86 82 1010.6
20260506154224 8 225 3.2 11.3 0.00 0.86 0.86 76 1010.6
20260506153716 9 220 3.2 6.4 0.00 0.86 0.86 76 1010.7
20260506153209 9 129 3.2 8.0 0.00 0.86 0.86 79 1010.6
20260506152701 9 243 4.8 14.5 0.00 0.86 0.86 75 1010.6
20260506152154 9 228 8.0 12.9 0.00 0.86 0.86 77 1010.8
20260506151140 8 28 3.2 8.0 0.00 0.86 0.86 79 1010.6
20260506150632 8 199 1.6 12.9 0.00 0.86 0.86 79 1010.8
20260506150124 8 252 4.8 17.7 0.00 0.86 0.86 79 1010.8
20260506145617 8 227 4.8 9.7 0.00 0.86 0.86 80 1010.9
20260506145109 8 231 6.4 11.3 0.00 0.86 0.86 80 1010.7
20260506144602 8 198 8.0 19.3 0.00 0.86 0.86 80 1010.5
20260506144054 8 200 0.0 9.7 0.00 0.86 0.86 82 1010.9
20260506143546 8 222 6.4 14.5 0.00 0.86 0.86 81 1010.5
20260506143038 8 211 1.6 11.3 0.00 0.86 0.86 82 1010.8
20260506142530 8 181 11.3 17.7 0.00 0.86 0.86 81 1010.8
20260506141516 7 210 8.0 9.7 0.00 0.86 0.86 83 1010.6
20260506141008 7 223 4.8 9.7 0.00 0.86 0.86 84 1011.0
20260506140500 7 218 6.4 14.5 0.00 0.86 0.86 83 1010.7
20260506135446 7 147 3.2 11.3 0.00 0.86 0.86 86 1010.3
20260506134432 7 196 1.6 6.4 0.00 0.86 0.86 85 1010.7
20260506133924 7 125 3.2 3.2 0.00 0.86 0.86 86 1010.3
20260506133416 7 93 4.8 4.8 0.00 0.86 0.86 85 1010.7
20260506132909 7 301 0.0 3.2 0.00 0.86 0.86 85 1010.5
20260506132401 7 205 6.4 8.0 0.00 0.86 0.86 84 1011.2
20260506131853 7 254 6.4 11.3 0.00 0.86 0.86 82 1010.8
20260506131345 7 205 4.8 8.0 0.00 0.86 0.86 84 1010.8
20260506130838 7 169 8.0 8.0 0.00 0.86 0.86 87 1010.5
20260506130330 7 333 6.4 14.5 0.00 0.86 0.86 86 1010.7
20260506125822 7 193 4.8 9.7 0.00 0.86 0.86 85 1010.7
20260506125315 7 116 1.6 4.8 0.00 0.86 0.86 86 1010.7
20260506124807 7 256 4.8 6.4 0.00 0.86 0.86 85 1010.4
20260506124300 7 150 1.6 6.4 0.00 0.86 0.86 85 1010.3
20260506123752 7 343 3.2 8.0 0.00 0.86 0.86 87 1010.5
20260506123244 7 137 1.6 3.2 0.00 0.86 0.86 88 1010.1
20260506122737 7 121 0.0 4.8 0.00 0.86 0.86 87 1010.1
20260506122229 7 217 6.4 9.7 0.00 0.86 0.86 88 1009.9
20260506121722 6 359 1.6 16.1 0.00 0.86 0.86 88 1010.1
20260506121214 6 256 3.2 12.9 0.00 0.86 0.86 87 1010.4
20260506120200 6 10 1.6 9.7 0.03 0.86 0.86 87 1010.1
20260506115652 6 341 8.0 8.0 0.05 0.86 0.86 89 1010.2
20260506115144 6 45 0.0 9.7 0.05 0.86 0.86 88 1009.9
20260506114636 6 273 4.8 8.0 0.05 0.86 0.86 88 1010.2
20260506114129 6 28 4.8 8.0 0.05 0.86 0.86 90 1009.9
20260506113621 6 183 1.6 4.8 0.05 0.86 0.86 90 1010.6
20260506113113 6 105 3.2 8.0 0.08 0.86 0.86 90 1010.0
20260506112605 6 338 4.8 6.4 0.10 0.86 0.86 89 1010.1
20260506112058 6 329 0.0 6.4 0.13 0.86 0.86 91 1010.1
20260506111551 6 224 3.2 9.7 0.15 0.86 0.86 90 1009.9
20260506111043 6 114 3.2 6.4 0.18 0.86 0.86 89 1010.0
20260506110535 6 96 4.8 8.0 0.18 0.84 0.84 89 1010.3
20260506110027 6 346 3.2 9.7 0.18 0.84 0.84 90 1010.3
20260506105520 6 44 4.8 9.7 0.20 0.81 0.81 89 1010.2
20260506105012 6 188 0.0 6.4 0.20 0.81 0.81 89 1010.4
20260506104505 6 246 0.0 9.7 0.20 0.81 0.81 90 1010.2
20260506103957 6 290 0.0 8.0 0.23 0.81 0.81 89 1010.0
20260506103450 5 197 8.0 14.5 0.23 0.79 0.79 90 1009.8
20260506102942 5 187 1.6 11.3 0.23 0.76 0.76 90 1010.2
20260506101927 5 251 8.0 16.1 0.23 0.71 0.71 90 1010.2
20260506101420 5 151 3.2 8.0 0.25 0.71 0.71 90 1010.2
20260506100913 6 22 4.8 8.0 0.28 0.69 0.69 91 1010.0
20260506100405 6 348 4.8 9.7 0.28 0.66 0.66 91 1009.9
20260506095857 6 4 4.8 8.0 0.28 0.66 0.66 90 1010.3
20260506095349 6 243 3.2 4.8 0.30 0.64 0.64 90 1009.8
20260506094842 6 32 3.2 8.0 0.30 0.61 0.61 91 1009.9
20260506094334 6 107 1.6 6.4 0.30 0.61 0.61 92 1009.7
20260506093826 6 336 3.2 4.8 0.33 0.58 0.58 92 1009.9
20260506093319 6 0 0.0 3.2 0.33 0.56 0.56 92 1009.8
20260506091248 6 25 4.8 4.8 0.30 0.43 0.43 92 1009.2
20260506090740 7 228 3.2 8.0 0.28 0.41 0.41 89 1009.4
20260506090233 7 203 1.6 4.8 0.25 0.38 0.38 90 1009.1
20260506085725 7 65 3.2 6.4 0.25 0.36 0.36 91 1008.9
20260506085218 7 226 1.6 9.7 0.23 0.33 0.33 91 1009.0
20260506084710 7 25 1.6 4.8 0.23 0.30 0.30 93 1008.8
20260506083655 7 130 0.0 9.7 0.18 0.25 0.25 92 1009.0
20260506083147 7 217 1.6 8.0 0.18 0.23 0.23 94 1008.8
20260506081626 7 195 0.0 1.6 0.13 0.15 0.15 94 1008.1
20260506081119 7 249 0.0 1.6 0.13 0.15 0.15 94 1008.2
20260506080611 7 216 0.0 3.2 0.10 0.13 0.13 94 1008.4
20260506080104 7 146 3.2 3.2 0.13 0.13 0.13 95 1008.4
20260506073017 7 119 0.0 3.2 0.05 0.05 0.05 94 1008.0
20260506072510 7 158 3.2 3.2 0.05 0.05 0.05 94 1008.2
20260506072002 7 89 0.0 1.6 0.05 0.05 0.05 94 1008.3
20260506071454 7 197 3.2 3.2 0.03 0.03 0.03 94 1007.6
20260506070946 7 209 0.0 4.8 0.03 0.03 0.03 94 1008.4
20260506070439 7 172 1.6 4.8 0.03 0.03 0.03 94 1007.8
20260506062338 7 84 1.6 3.2 0.00 0.00 0.00 91 1008.1
20260506061831 7 124 3.2 3.2 0.00 0.00 0.00 91 1008.0
20260506061323 7 116 1.6 3.2 0.00 0.00 0.00 90 1007.8
20260506060816 7 130 0.0 3.2 0.00 0.00 0.00 90 1008.0
20260506060309 7 205 0.0 1.6 0.00 0.00 0.00 91 1007.9
20260506051154 7 47 3.2 3.2 0.00 0.00 0.00 90 1007.9
20260506050646 7 74 1.6 3.2 0.00 0.00 0.00 91 1008.2
20260506050138 7 9 1.6 3.2 0.00 0.00 0.00 91 1007.9
20260506045123 7 67 4.8 4.8 0.00 0.00 0.00 88 1007.9
20260506044616 7 62 3.2 4.8 0.00 0.00 0.00 88 1008.1
20260506043054 7 123 3.2 3.2 0.00 0.00 0.00 89 1008.2
20260506042547 7 315 0.0 0.0 0.00 0.00 0.00 88 1008.0
20260506042040 7 310 0.0 3.2 0.00 0.00 0.00 87 1008.3
20260506041532 7 103 0.0 1.6 0.00 0.00 0.00 88 1007.9
20260506041024 7 124 0.0 3.2 0.00 0.00 0.00 88 1008.1
20260506040517 7 319 0.0 1.6 0.00 0.00 0.00 88 1008.1
20260506040010 7 348 1.6 1.6 0.00 0.00 0.00 87 1008.2
20260506035503 7 336 0.0 3.2 0.00 0.00 0.00 88 1008.2
20260506034955 7 342 0.0 1.6 0.00 0.00 0.00 88 1008.1
20260506034448 7 129 0.0 3.2 0.00 0.00 0.00 89 1008.4
20260506033941 7 19 3.2 4.8 0.00 0.00 0.00 88 1008.3
20260506033433 6 309 0.0 1.6 0.00 0.00 0.00 89 1008.5
20260506032926 6 348 1.6 1.6 0.00 0.00 0.00 90 1008.3
20260506032419 6 347 3.2 3.2 0.00 0.00 0.00 90 1008.4
20260506031912 6 340 3.2 4.8 0.00 0.00 0.00 90 1008.3
20260506031404 7 345 3.2 3.2 0.00 0.00 0.00 90 1007.8
20260506030857 7 0 0.0 3.2 0.00 0.00 0.00 88 1008.9
20260506030350 7 341 3.2 4.8 0.00 0.00 0.00 89 1008.7
20260506025842 7 327 4.8 4.8 0.00 0.00 0.00 89 1008.6
20260506025335 7 334 3.2 4.8 0.00 0.00 0.00 89 1008.8
20260506024828 7 343 3.2 3.2 0.00 0.00 0.00 88 1008.9
20260506024321 7 336 3.2 3.2 0.00 0.00 0.00 89 1008.8
20260506023814 6 344 3.2 3.2 0.00 0.00 0.00 90 1008.6
20260506023306 7 337 4.8 4.8 0.00 0.00 0.00 89 1008.9
20260506022759 6 339 3.2 3.2 0.00 0.00 0.00 90 1008.9
20260506022251 6 339 3.2 4.8 0.00 0.00 0.00 91 1008.6
20260506021744 7 338 3.2 4.8 0.00 0.00 0.00 91 1009.0
20260506021236 7 331 3.2 4.8 0.00 0.00 0.00 92 1008.8
20260506020728 7 329 3.2 4.8 0.00 0.00 0.00 92 1008.5
20260506020221 7 332 3.2 4.8 0.00 0.00 0.00 92 1009.5
20260506015713 7 331 3.2 3.2 0.00 0.00 0.00 92 1008.9
20260506015205 7 336 3.2 3.2 0.00 0.00 0.00 92 1009.1
20260506014658 7 347 3.2 3.2 0.00 0.00 0.00 92 1008.9
20260506014150 7 2 0.0 3.2 0.00 0.00 0.00 92 1009.3
20260506013643 7 339 3.2 3.2 0.00 0.00 0.00 91 1009.2
20260506013135 7 336 3.2 4.8 0.00 0.00 0.00 91 1009.3
20260506012628 7 344 3.2 3.2 0.00 0.00 0.00 91 1009.5
20260506012120 7 340 3.2 3.2 0.00 0.00 0.00 91 1009.2
20260506011612 7 350 1.6 3.2 0.00 0.00 0.00 90 1009.8
20260506011105 7 8 3.2 3.2 0.00 0.00 0.00 91 1009.7
20260506010557 7 15 3.2 3.2 0.00 0.00 0.00 90 1009.8
20260506010050 7 207 0.0 3.2 0.00 0.00 0.00 91 1009.7
20260506005543 7 340 0.0 1.6 0.00 0.00 0.00 91 1009.8
20260506005035 7 352 0.0 1.6 0.00 0.00 0.00 91 1009.4
20260506004527 7 28 1.6 4.8 0.00 0.00 0.00 91 1009.9
20260506004020 7 6 0.0 3.2 0.00 0.00 0.00 93 1009.8
20260506003512 7 345 3.2 3.2 0.00 0.00 0.00 93 1009.5
20260506003005 7 32 0.0 3.2 0.00 0.00 0.00 93 1009.9
20260506002457 7 34 3.2 3.2 0.00 0.00 0.00 92 1010.3
20260506001949 7 85 3.2 4.8 0.00 0.00 0.00 91 1010.3
20260506001442 8 30 3.2 3.2 0.00 0.00 0.00 91 1010.4
20260506000934 8 78 3.2 4.8 0.00 0.00 0.00 90 1010.3
20260506000427 7 44 3.2 3.2 0.00 0.00 0.00 90 1010.5
20260505235920 7 50 0.0 3.2 0.00 0.00 0.00 91 1010.4
20260505235412 8 315 1.6 3.2 0.00 0.00 0.00 91 1010.7
20260505234905 8 175 1.6 3.2 0.00 0.00 0.00 90 1010.8
20260505234358 8 142 0.0 3.2 0.00 0.00 0.00 90 1010.6
20260505233851 8 44 0.0 1.6 0.00 0.00 0.00 90 1010.7
20260505233344 7 230 1.6 3.2 0.00 0.00 0.00 90 1010.8
20260505232836 7 348 3.2 4.8 0.00 0.00 0.00 92 1010.4
20260505232328 7 44 0.0 3.2 0.00 0.00 0.00 92 1010.8
20260505231821 8 93 3.2 4.8 0.00 0.00 0.00 89 1010.8
20260505231314 8 103 1.6 4.8 0.00 0.00 0.00 88 1010.7
20260505230806 8 33 1.6 4.8 0.00 0.00 0.00 88 1011.2
20260505230258 8 52 4.8 4.8 0.00 0.00 0.00 87 1010.7
20260505225751 8 48 3.2 4.8 0.00 0.00 0.00 89 1010.9
20260505225244 8 40 0.0 4.8 0.00 0.00 0.00 89 1011.0
20260505224736 8 69 3.2 4.8 0.00 0.00 0.00 90 1011.3
20260505224229 8 47 0.0 6.4 0.00 0.00 0.00 90 1011.1
20260505223722 8 26 4.8 4.8 0.00 0.00 0.00 90 1010.7
20260505223214 8 342 3.2 4.8 0.00 0.00 0.00 90 1010.8
20260505222707 8 344 0.0 11.3 0.00 0.00 0.00 90 1011.1
20260505222200 8 173 3.2 12.9 0.00 0.00 0.00 89 1011.5
20260505221652 8 302 4.8 14.5 0.00 0.00 0.00 87 1011.3
20260505221144 8 235 9.7 16.1 0.00 0.00 0.00 85 1011.3
20260505220637 8 218 9.7 25.7 0.00 0.00 0.00 83 1011.4
20260505220129 8 224 1.6 9.7 0.00 0.00 0.00 85 1011.6
20260505215622 8 325 3.2 4.8 0.00 1.14 1.14 85 1011.4
20260505215115 8 130 3.2 6.4 0.00 1.14 1.14 84 1011.2
20260505214607 8 60 0.0 4.8 0.00 1.14 1.14 82 1011.5
20260505214100 8 1 8.0 8.0 0.00 1.14 1.14 82 1011.5
20260505213552 8 44 1.6 3.2 0.00 1.14 1.14 81 1011.2
20260505213045 8 12 3.2 3.2 0.00 1.14 1.14 84 1011.3
20260505212538 8 22 1.6 6.4 0.00 1.14 1.14 85 1011.3
20260505212030 8 201 3.2 4.8 0.00 1.14 1.14 82 1011.4
20260505211522 8 94 1.6 3.2 0.00 1.14 1.14 84 1010.9
20260505211015 8 293 1.6 3.2 0.00 1.14 1.14 85 1011.5
20260505210507 8 64 4.8 4.8 0.00 1.14 1.14 86 1011.2
20260505210000 8 327 3.2 4.8 0.00 1.14 1.14 88 1011.5
20260505205452 8 9 8.0 8.0 0.00 1.14 1.14 86 1011.4
20260505204945 8 2 4.8 6.4 0.00 1.14 1.14 88 1011.5
20260505204437 8 344 3.2 3.2 0.00 1.14 1.14 90 1011.4
20260505203930 8 0 3.2 4.8 0.00 1.14 1.14 88 1011.5
20260505203423 8 57 0.0 3.2 0.00 1.14 1.14 89 1011.8
20260505202916 8 351 3.2 3.2 0.00 1.14 1.14 90 1011.6
20260505202408 8 116 3.2 4.8 0.00 1.14 1.14 90 1011.0
20260505201900 8 320 1.6 3.2 0.00 1.14 1.14 91 1011.9
20260505201352 8 140 0.0 3.2 0.00 1.14 1.14 90 1011.2
20260505200845 8 52 1.6 3.2 0.00 1.14 1.14 86 1011.4
20260505200337 8 24 4.8 4.8 0.00 1.14 1.14 86 1011.0
20260505195829 8 353 1.6 6.4 0.00 1.14 1.14 85 1010.5